SCP
0 0 0 0 0 1 2 2 2 2 1 1 2 1 0 0 0 0 0 0 0 0 0 0 0 0 0 0 0 0 0 0 0 0 0 0 0 0 0 0 0 0 0
0 0 0 0 0 0 0 1 2 2 2 1 2 1 0 0 0 0 0 0 0 0 0 0 0 0 0 0 0 0 0 0 0 0 0 0 0 0 0 0 0 0 0
0 0 0 0 0 0 0 0 0 2 2 1 1 1 0 0 0 0 0 0 0 0 0 0 0 0 0 0 0 0 0 0 0 0 0 0 0 0 0 0 0 0 0
0 0 0 0 0 0 0 0 0 0 1 1 1 1 2 0 0 0 0 0 0 0 0 0 0 0 0 0 0 0 0 0 0 0 0 0 0 0 0 0 0 0 0
0 0 0 0 0 0 0 0 0 0 0 2 1 1 2 0 0 0 0 0 0 0 0 0 0 0 0 0 0 0 0 0 0 0 0 0 0 0 0 0 0 0 0
0 0 0 0 0 0 0 0 0 0 0 0 1 1 1 1 1 0 0 0 0 0 0 0 0 0 0 0 0 0 0 0 0 0 0 0 0 0 0 0 0 0 0
0 0 0 0 0 0 0 0 0 0 0 0 0 1 1 1 1 1 0 0 0 0 0 0 0 0 0 0 0 0 0 0 0 0 0 0 0 0 0 0 0 0 0
0 0 0 0 0 0 0 0 0 0 0 0 0 0 1 1 1 1 0 0 0 0 0 0 0 0 0 0 0 0 0 0 0 0 0 0 0 0 0 0 0 0 0
0 0 0 0 0 0 0 0 0 0 0 0 0 0 0 1 1 0 0 0 0 0 0 0 0 0 0 0 0 0 0 0 0 0 0 0 0 0 0 0 0 0 0
0 0 0 0 0 0 0 0 0 0 0 0 0 0 0 0 1 1 0 0 0 0 0 0 0 0 0 0 0 0 0 0 0 0 0 0 0 0 0 0 0 0 0
0 0 0 0 0 0 0 0 0 0 0 0 0 0 0 0 0 1 0 0 0 0 0 0 0 0 0 0 0 0 0 0 0 0 0 0 0 0 0 0 0 0 0
0 0 0 0 0 0 0 0 0 0 0 0 0 0 0 0 0 1 0 0 0 0 0 0 0 0 0 0 0 0 0 0 0 0 0 0 0 0 0 0 0 0 0
0 0 0 0 0 0 0 0 0 0 0 0 0 0 0 0 0 0 0 0 0 0 0 0 0 0 0 0 0 0 0 0 0 0 0 0 0 0 0 0 0 0 0
0 0 0 0 0 0 0 0 0 0 0 0 0 0 0 0 0 0 0 0 0 0 0 0 0 0 0 0 0 0 0 0 0 0 0 0 0 0 0 0 0 0 0
0 0 0 0 0 0 0 0 0 0 0 0 0 0 0 0 0 0 0 0 0 0 0 0 0 0 0 0 0 0 0 0 0 0 0 0 0 0 0 0 0 0 0
0 0 0 0 0 0 0 0 0 0 0 0 0 0 0 0 0 0 0 0 0 0 0 0 0 0 0 0 0 0 0 0 0 0 0 0 0 0 0 0 0 0 0
0 0 0 0 0 0 0 0 0 0 0 0 0 0 0 0 0 0 0 0 0 0 0 0 0 0 0 0 0 0 0 0 0 0 0 0 0 0 0 0 0 0 0
0 0 0 0 0 0 0 0 0 0 0 0 0 0 0 0 0 0 0 0 0 0 0 0 0 0 0 0 0 0 0 0 0 0 0 0 0 0 0 0 0 0 0
0 0 0 0 0 0 0 0 0 0 0 0 0 0 0 0 0 0 0 0 0 0 0 0 0 0 0 0 0 0 0 0 0 0 0 0 0 0 0 0 0 0 0
0 0 0 0 0 0 0 0 0 0 0 0 0 0 0 0 0 0 0 0 0 0 0 0 0 0 0 0 0 0 0 0 0 0 0 0 0 0 0 0 0 0 0
0 0 0 0 0 0 0 0 0 0 0 0 0 0 0 0 0 0 0 0 0 0 0 0 0 0 0 0 0 0 0 0 0 0 0 0 0 0 0 0 0 0 0
0 0 0 0 0 0 0 0 0 0 0 0 0 0 0 0 0 0 0 0 0 0 0 0 0 0 0 0 0 0 0 0 0 0 0 0 0 0 0 0 0 0 0
0 0 0 0 0 0 0 0 0 0 0 0 0 0 0 0 0 0 0 0 0 0 0 0 0 0 0 0 0 0 0 0 0 0 0 0 0 0 0 0 0 0 0
0 0 0 0 0 0 0 0 0 0 0 0 0 0 0 0 0 0 0 0 0 0 0 0 0 0 0 0 0 0 0 0 0 0 0 0 0 0 0 0 0 0 0
0 0 0 0 0 0 0 0 0 0 0 0 0 0 0 0 0 0 0 0 0 0 0 0 0 0 0 0 0 0 0 0 0 0 0 0 0 0 0 0 0 0 0
0 0 0 0 0 0 0 0 0 0 0 0 0 0 0 0 0 0 0 0 0 0 0 0 0 0 0 0 0 0 0 0 0 0 0 0 0 0 0 0 0 0 0
Wind_Speed_500mb
67 62 46 38 37 54 54 63 63 72 79 83 80 83 84 82 81 77 76 68 59 53 52 47 50 62 61 57 53 48 45 45 40 37 34 30 30 33 35 30 31 30 27
67 67 30 29 27 43 52 47 58 60 71 73 79 86 83 81 82 86 82 74 68 61 54 50 55 55 58 50 46 50 56 49 47 38 37 28 27 29 32 41 40 39 36
39 26 19 18 23 28 36 40 50 59 61 72 73 75 70 69 72 88 92 82 76 68 61 52 58 58 58 56 51 55 57 60 52 42 27 21 18 32 37 38 38 37 41
46 30 25 24 22 25 42 55 55 55 60 68 73 71 75 75 76 74 81 79 75 75 70 63 54 56 58 54 56 61 59 61 62 58 48 32 24 28 21 33 48 47 46
52 49 43 38 34 31 31 46 56 66 67 60 76 73 71 76 75 72 75 80 77 82 76 67 59 57 61 61 59 57 61 62 57 68 64 44 31 36 21 21 36 47 56
55 49 44 37 35 33 35 38 45 59 68 73 71 79 77 70 73 74 77 79 83 83 78 72 69 63 62 62 58 57 59 61 53 56 65 67 55 42 30 19 27 32 38
56 60 58 51 40 34 30 32 43 51 67 74 70 77 83 79 64 69 74 79 79 80 83 82 80 74 69 64 64 59 58 64 61 54 58 55 61 41 32 29 23 22 18
56 58 61 57 48 39 28 24 31 42 57 76 77 75 78 84 78 72 77 81 79 77 74 77 85 81 72 68 65 60 56 60 68 62 56 56 51 45 43 40 34 23 29
58 62 64 61 56 42 31 23 20 26 40 69 70 82 78 85 85 76 68 71 72 72 75 74 79 87 80 76 75 68 64 60 60 69 68 59 51 50 48 50 43 38 30
59 67 66 61 60 46 34 23 16 16 26 40 59 73 76 79 82 75 74 64 66 64 70 79 79 86 80 79 81 74 74 69 62 65 65 65 62 57 51 55 50 47 50
62 68 65 61 58 49 36 24 12 8 15 24 37 55 63 85 78 77 78 70 63 61 60 64 69 79 81 82 82 78 78 74 69 67 64 67 65 62 62 64 59 60 52
59 65 65 64 63 59 47 37 19 7 7 16 20 33 55 73 72 75 75 75 65 62 62 62 64 69 73 83 82 81 81 78 77 74 72 64 61 65 68 65 62 61 62
62 67 71 72 68 66 58 46 36 22 9 9 16 18 30 60 67 78 79 76 70 60 63 65 67 68 73 71 71 73 79 79 77 76 78 69 68 68 71 66 66 68 66
60 64 71 72 71 67 60 52 44 35 24 7 9 18 21 33 69 68 72 73 72 66 61 63 65 69 69 65 61 63 68 68 69 73 70 67 66 66 66 65 62 63 61
60 68 72 72 72 68 65 57 50 44 39 25 6 10 25 24 32 56 74 70 70 71 65 62 66 68 67 64 66 67 66 67 69 69 68 69 72 67 64 67 63 61 62
59 66 69 68 70 64 64 64 57 49 45 42 29 8 12 25 32 33 57 64 69 71 73 70 62 67 69 65 62 63 67 67 64 64 60 62 63 62 63 63 64 66 65
63 67 68 65 64 64 62 63 57 50 48 47 43 33 8 8 26 35 37 54 67 64 68 68 66 67 69 63 60 64 68 67 68 68 69 67 66 65 67 67 68 67 68
56 60 57 58 60 59 59 61 57 54 52 53 49 44 35 15 8 25 41 46 53 64 71 68 68 60 65 63 66 67 65 70 72 73 74 75 69 69 73 75 74 68 66
50 52 52 56 57 58 59 63 61 60 57 59 55 48 43 36 20 6 21 33 49 61 67 62 59 57 56 60 63 66 71 76 74 70 66 66 69 66 62 65 65 64 62
46 50 51 57 60 61 62 65 63 61 63 61 54 46 43 43 39 27 9 16 28 49 50 57 54 56 60 60 60 60 63 62 64 60 56 53 53 53 53 54 55 58 57
46 47 48 56 61 62 63 65 64 63 60 59 52 48 43 45 45 41 30 25 23 24 38 51 58 59 59 61 57 55 57 57 55 53 54 53 49 45 42 41 42 45 43
47 47 50 53 57 60 64 66 66 59 56 60 54 51 47 43 46 48 46 41 43 42 37 36 37 34 43 58 59 60 58 52 49 48 46 42 41 38 37 37 38 36 37
43 44 48 50 52 55 59 62 61 59 56 59 57 52 54 46 46 51 53 51 47 46 47 44 42 36 30 29 45 61 60 57 52 46 43 43 41 41 37 37 40 42 44
41 42 44 48 52 53 55 55 56 54 52 58 55 53 54 50 48 50 53 59 56 52 46 46 45 39 33 33 31 31 34 39 43 46 45 41 43 42 37 31 29 29 27
39 38 40 42 45 48 51 52 53 51 52 53 53 54 52 51 48 49 49 48 48 48 50 46 47 49 43 37 29 25 30 33 30 31 33 30 29 28 29 30 28 27 25
38 38 38 40 43 45 48 49 50 48 44 47 50 48 48 50 48 44 40 40 39 37 38 46 38 39 39 35 24 23 19 16 21 23 25 24 21 18 17 16 16 18 17
Wind_Direction_500mb
274 268 267 246 227 226 226 223 216 220 221 222 219 224 227 225 219 218 219 210 210 203 197 200 202 208 208 210 210 202 188 189 196 189 188 202 207 201 190 194 204 191 205
274 264 257 252 252 233 225 225 223 226 224 220 218 225 230 233 231 224 218 214 210 207 201 202 197 208 200 199 201 194 189 191 193 184 188 200 215 220 213 213 214 210 209
285 289 284 285 273 262 244 234 225 219 229 222 219 223 227 231 229 225 216 211 211 210 207 209 208 207 200 201 200 195 194 191 199 180 183 186 208 207 216 225 222 216 217
353 339 320 312 294 282 245 229 211 215 223 229 219 216 217 218 223 226 222 217 211 213 211 210 213 210 204 204 205 205 199 202 202 189 192 197 185 186 180 224 232 228 228
346 343 338 326 307 299 274 238 229 211 205 228 229 209 212 224 221 226 227 221 212 214 212 213 212 212 209 206 211 208 206 204 210 205 200 202 188 187 205 197 215 232 231
347 340 328 316 311 292 277 249 234 225 212 208 224 217 209 217 222 222 222 222 217 214 211 213 216 215 216 217 219 214 212 202 209 216 214 216 208 209 213 223 209 225 237
349 346 341 328 313 310 288 267 243 231 219 211 213 221 214 212 213 219 216 217 220 216 217 218 214 216 218 215 216 216 214 207 206 213 210 221 227 217 229 212 215 207 216
348 346 345 338 325 314 306 282 250 235 225 217 213 213 222 216 214 217 220 225 226 228 227 223 222 218 220 220 220 219 218 214 210 209 214 220 220 219 219 210 212 212 216
346 346 345 345 340 324 313 300 270 240 227 219 213 213 214 221 217 215 219 226 229 228 227 223 221 216 217 222 219 221 220 220 220 218 220 220 224 218 219 226 219 217 222
345 348 348 348 343 340 328 305 277 254 230 214 215 210 208 215 222 219 220 216 224 227 229 222 219 218 221 223 222 220 226 224 225 226 225 226 228 231 225 232 229 230 233
346 349 349 349 348 353 349 333 301 261 231 214 212 208 205 209 215 218 220 222 224 217 212 218 220 218 219 222 220 223 226 227 227 229 230 230 233 235 237 241 239 238 239
346 352 353 354 357 359 3 2 354 335 265 216 204 201 209 219 214 215 219 221 210 208 209 212 218 217 220 218 222 221 226 229 229 229 230 229 228 233 237 241 242 246 248
348 353 356 358 359 0 5 9 15 12 352 219 214 205 200 204 209 210 221 222 217 210 209 209 210 209 214 218 222 227 230 231 228 231 231 232 231 232 236 239 244 246 250
348 352 355 356 2 5 4 17 19 21 23 56 212 219 213 194 207 201 207 218 220 218 214 210 211 214 217 220 225 225 224 226 230 234 237 233 234 239 242 244 248 250 249
349 352 352 357 2 5 8 19 24 25 28 35 36 223 226 225 198 194 208 214 216 218 221 214 217 218 219 216 226 227 228 229 231 235 238 238 241 241 246 247 248 251 255
347 350 356 3 4 6 10 20 24 25 32 35 33 16 235 221 227 197 201 204 214 216 223 225 215 220 217 218 226 232 228 229 234 236 236 235 238 241 247 250 250 251 251
349 353 357 4 5 9 15 21 24 28 33 39 38 35 23 230 215 212 206 195 210 216 222 228 220 221 218 219 228 233 235 237 237 240 246 245 245 243 245 249 247 249 252
351 358 1 6 11 15 21 25 27 32 34 36 39 40 39 37 215 210 213 207 203 214 220 225 222 224 227 228 231 233 236 240 239 240 244 245 248 252 251 249 247 246 244
354 359 9 13 16 19 26 27 29 32 35 34 33 39 42 43 51 163 201 197 200 212 209 214 216 224 233 235 234 235 236 238 238 241 241 243 242 242 246 246 243 241 238
357 359 12 19 20 21 27 28 30 33 35 33 30 35 45 49 51 54 105 180 199 199 207 203 215 222 225 228 229 230 229 229 230 230 232 234 238 237 233 233 232 235 233
356 1 14 20 20 22 26 29 29 32 35 36 32 36 41 55 59 64 73 102 127 163 176 190 200 209 212 217 214 219 225 227 225 226 227 226 226 225 224 223 230 234 235
359 6 11 17 20 24 25 26 27 28 35 37 35 39 39 47 60 65 68 80 92 107 111 123 147 162 191 208 210 208 214 223 221 215 217 217 215 216 214 216 224 227 229
356 4 8 13 18 22 23 22 23 26 31 35 33 38 42 44 52 61 61 60 66 71 72 78 85 96 113 150 192 205 204 210 213 212 212 216 213 212 212 216 223 229 234
357 1 5 9 13 17 18 18 17 25 31 33 32 36 43 43 49 56 57 56 52 56 57 58 60 63 70 95 114 150 169 182 191 192 193 199 201 202 207 206 207 217 222
358 2 4 5 10 15 15 14 13 17 26 32 26 31 39 43 49 49 49 50 55 53 53 51 55 51 49 49 61 92 119 130 137 149 159 164 171 179 187 199 207 213 220
1 4 8 10 10 14 14 14 14 17 19 27 21 26 31 36 43 48 53 54 52 53 60 58 61 61 56 54 63 73 82 108 131 140 130 135 142 152 164 184 194 199 206
Wind_Speed_850mb
67 62 46 38 37 54 54 63 63 72 79 83 80 83 84 82 81 77 76 68 59 53 52 47 50 62 61 57 53 48 45 45 40 37 34 30 30 33 35 30 31 30 27
67 67 30 29 27 43 52 47 58 60 71 73 79 86 83 81 82 86 82 74 68 61 54 50 55 55 58 50 46 50 56 49 47 38 37 28 27 29 32 41 40 39 36
39 26 19 18 23 28 36 40 50 59 61 72 73 75 70 69 72 88 92 82 76 68 61 52 58 58 58 56 51 55 57 60 52 42 27 21 18 32 37 38 38 37 41
46 30 25 24 22 25 42 55 55 55 60 68 73 71 75 75 76 74 81 79 75 75 70 63 54 56 58 54 56 61 59 61 62 58 48 32 24 28 21 33 48 47 46
52 49 43 38 34 31 31 46 56 66 67 60 76 73 71 76 75 72 75 80 77 82 76 67 59 57 61 61 59 57 61 62 57 68 64 44 31 36 21 21 36 47 56
55 49 44 37 35 33 35 38 45 59 68 73 71 79 77 70 73 74 77 79 83 83 78 72 69 63 62 62 58 57 59 61 53 56 65 67 55 42 30 19 27 32 38
56 60 58 51 40 34 30 32 43 51 67 74 70 77 83 79 64 69 74 79 79 80 83 82 80 74 69 64 64 59 58 64 61 54 58 55 61 41 32 29 23 22 18
56 58 61 57 48 39 28 24 31 42 57 76 77 75 78 84 78 72 77 81 79 77 74 77 85 81 72 68 65 60 56 60 68 62 56 56 51 45 43 40 34 23 29
58 62 64 61 56 42 31 23 20 26 40 69 70 82 78 85 85 76 68 71 72 72 75 74 79 87 80 76 75 68 64 60 60 69 68 59 51 50 48 50 43 38 30
59 67 66 61 60 46 34 23 16 16 26 40 59 73 76 79 82 75 74 64 66 64 70 79 79 86 80 79 81 74 74 69 62 65 65 65 62 57 51 55 50 47 50
62 68 65 61 58 49 36 24 12 8 15 24 37 55 63 85 78 77 78 70 63 61 60 64 69 79 81 82 82 78 78 74 69 67 64 67 65 62 62 64 59 60 52
59 65 65 64 63 59 47 37 19 7 7 16 20 33 55 73 72 75 75 75 65 62 62 62 64 69 73 83 82 81 81 78 77 74 72 64 61 65 68 65 62 61 62
62 67 71 72 68 66 58 46 36 22 9 9 16 18 30 60 67 78 79 76 70 60 63 65 67 68 73 71 71 73 79 79 77 76 78 69 68 68 71 66 66 68 66
60 64 71 72 71 67 60 52 44 35 24 7 9 18 21 33 69 68 72 73 72 66 61 63 65 69 69 65 61 63 68 68 69 73 70 67 66 66 66 65 62 63 61
60 68 72 72 72 68 65 57 50 44 39 25 6 10 25 24 32 56 74 70 70 71 65 62 66 68 67 64 66 67 66 67 69 69 68 69 72 67 64 67 63 61 62
59 66 69 68 70 64 64 64 57 49 45 42 29 8 12 25 32 33 57 64 69 71 73 70 62 67 69 65 62 63 67 67 64 64 60 62 63 62 63 63 64 66 65
63 67 68 65 64 64 62 63 57 50 48 47 43 33 8 8 26 35 37 54 67 64 68 68 66 67 69 63 60 64 68 67 68 68 69 67 66 65 67 67 68 67 68
56 60 57 58 60 59 59 61 57 54 52 53 49 44 35 15 8 25 41 46 53 64 71 68 68 60 65 63 66 67 65 70 72 73 74 75 69 69 73 75 74 68 66
50 52 52 56 57 58 59 63 61 60 57 59 55 48 43 36 20 6 21 33 49 61 67 62 59 57 56 60 63 66 71 76 74 70 66 66 69 66 62 65 65 64 62
46 50 51 57 60 61 62 65 63 61 63 61 54 46 43 43 39 27 9 16 28 49 50 57 54 56 60 60 60 60 63 62 64 60 56 53 53 53 53 54 55 58 57
46 47 48 56 61 62 63 65 64 63 60 59 52 48 43 45 45 41 30 25 23 24 38 51 58 59 59 61 57 55 57 57 55 53 54 53 49 45 42 41 42 45 43
47 47 50 53 57 60 64 66 66 59 56 60 54 51 47 43 46 48 46 41 43 42 37 36 37 34 43 58 59 60 58 52 49 48 46 42 41 38 37 37 38 36 37
43 44 48 50 52 55 59 62 61 59 56 59 57 52 54 46 46 51 53 51 47 46 47 44 42 36 30 29 45 61 60 57 52 46 43 43 41 41 37 37 40 42 44
41 42 44 48 52 53 55 55 56 54 52 58 55 53 54 50 48 50 53 59 56 52 46 46 45 39 33 33 31 31 34 39 43 46 45 41 43 42 37 31 29 29 27
39 38 40 42 45 48 51 52 53 51 52 53 53 54 52 51 48 49 49 48 48 48 50 46 47 49 43 37 29 25 30 33 30 31 33 30 29 28 29 30 28 27 25
38 38 38 40 43 45 48 49 50 48 44 47 50 48 48 50 48 44 40 40 39 37 38 46 38 39 39 35 24 23 19 16 21 23 25 24 21 18 17 16 16 18 17
Wind_Direction_850mb
274 268 267 246 227 226 226 223 216 220 221 222 219 224 227 225 219 218 219 210 210 203 197 200 202 208 208 210 210 202 188 189 196 189 188 202 207 201 190 194 204 191 205
274 264 257 252 252 233 225 225 223 226 224 220 218 225 230 233 231 224 218 214 210 207 201 202 197 208 200 199 201 194 189 191 193 184 188 200 215 220 213 213 214 210 209
285 289 284 285 273 262 244 234 225 219 229 222 219 223 227 231 229 225 216 211 211 210 207 209 208 207 200 201 200 195 194 191 199 180 183 186 208 207 216 225 222 216 217
353 339 320 312 294 282 245 229 211 215 223 229 219 216 217 218 223 226 222 217 211 213 211 210 213 210 204 204 205 205 199 202 202 189 192 197 185 186 180 224 232 228 228
346 343 338 326 307 299 274 238 229 211 205 228 229 209 212 224 221 226 227 221 212 214 212 213 212 212 209 206 211 208 206 204 210 205 200 202 188 187 205 197 215 232 231
347 340 328 316 311 292 277 249 234 225 212 208 224 217 209 217 222 222 222 222 217 214 211 213 216 215 216 217 219 214 212 202 209 216 214 216 208 209 213 223 209 225 237
349 346 341 328 313 310 288 267 243 231 219 211 213 221 214 212 213 219 216 217 220 216 217 218 214 216 218 215 216 216 214 207 206 213 210 221 227 217 229 212 215 207 216
348 346 345 338 325 314 306 282 250 235 225 217 213 213 222 216 214 217 220 225 226 228 227 223 222 218 220 220 220 219 218 214 210 209 214 220 220 219 219 210 212 212 216
346 346 345 345 340 324 313 300 270 240 227 219 213 213 214 221 217 215 219 226 229 228 227 223 221 216 217 222 219 221 220 220 220 218 220 220 224 218 219 226 219 217 222
345 348 348 348 343 340 328 305 277 254 230 214 215 210 208 215 222 219 220 216 224 227 229 222 219 218 221 223 222 220 226 224 225 226 225 226 228 231 225 232 229 230 233
346 349 349 349 348 353 349 333 301 261 231 214 212 208 205 209 215 218 220 222 224 217 212 218 220 218 219 222 220 223 226 227 227 229 230 230 233 235 237 241 239 238 239
346 352 353 354 357 359 3 2 354 335 265 216 204 201 209 219 214 215 219 221 210 208 209 212 218 217 220 218 222 221 226 229 229 229 230 229 228 233 237 241 242 246 248
348 353 356 358 359 0 5 9 15 12 352 219 214 205 200 204 209 210 221 222 217 210 209 209 210 209 214 218 222 227 230 231 228 231 231 232 231 232 236 239 244 246 250
348 352 355 356 2 5 4 17 19 21 23 56 212 219 213 194 207 201 207 218 220 218 214 210 211 214 217 220 225 225 224 226 230 234 237 233 234 239 242 244 248 250 249
349 352 352 357 2 5 8 19 24 25 28 35 36 223 226 225 198 194 208 214 216 218 221 214 217 218 219 216 226 227 228 229 231 235 238 238 241 241 246 247 248 251 255
347 350 356 3 4 6 10 20 24 25 32 35 33 16 235 221 227 197 201 204 214 216 223 225 215 220 217 218 226 232 228 229 234 236 236 235 238 241 247 250 250 251 251
349 353 357 4 5 9 15 21 24 28 33 39 38 35 23 230 215 212 206 195 210 216 222 228 220 221 218 219 228 233 235 237 237 240 246 245 245 243 245 249 247 249 252
351 358 1 6 11 15 21 25 27 32 34 36 39 40 39 37 215 210 213 207 203 214 220 225 222 224 227 228 231 233 236 240 239 240 244 245 248 252 251 249 247 246 244
354 359 9 13 16 19 26 27 29 32 35 34 33 39 42 43 51 163 201 197 200 212 209 214 216 224 233 235 234 235 236 238 238 241 241 243 242 242 246 246 243 241 238
357 359 12 19 20 21 27 28 30 33 35 33 30 35 45 49 51 54 105 180 199 199 207 203 215 222 225 228 229 230 229 229 230 230 232 234 238 237 233 233 232 235 233
356 1 14 20 20 22 26 29 29 32 35 36 32 36 41 55 59 64 73 102 127 163 176 190 200 209 212 217 214 219 225 227 225 226 227 226 226 225 224 223 230 234 235
359 6 11 17 20 24 25 26 27 28 35 37 35 39 39 47 60 65 68 80 92 107 111 123 147 162 191 208 210 208 214 223 221 215 217 217 215 216 214 216 224 227 229
356 4 8 13 18 22 23 22 23 26 31 35 33 38 42 44 52 61 61 60 66 71 72 78 85 96 113 150 192 205 204 210 213 212 212 216 213 212 212 216 223 229 234
357 1 5 9 13 17 18 18 17 25 31 33 32 36 43 43 49 56 57 56 52 56 57 58 60 63 70 95 114 150 169 182 191 192 193 199 201 202 207 206 207 217 222
358 2 4 5 10 15 15 14 13 17 26 32 26 31 39 43 49 49 49 50 55 53 53 51 55 51 49 49 61 92 119 130 137 149 159 164 171 179 187 199 207 213 220
1 4 8 10 10 14 14 14 14 17 19 27 21 26 31 36 43 48 53 54 52 53 60 58 61 61 56 54 63 73 82 108 131 140 130 135 142 152 164 184 194 199 206